1484013600.81,58061,4.38,72624.3,-16.53,-48.77,-49.19,0,*62
1484013602.02,58062,4.38,72624.0,-16.55,-48.63,-49.05,0,*6F
1484013603.28,58063,4.38,72622.5,-16.53,-48.97,-49.39,0,*6C
1484013604.51,58064,4.38,72624.0,-16.53,-48.97,-49.25,0,*66
1484013605.78,58065,4.38,72624.3,-16.53,-49.05,-49.39,0,*60
1484013606.99,58066,4.38,72622.3,-16.55,-48.63,-49.05,0,*6B
1484013608.23,58067,4.38,72622.5,-16.55,-48.77,-49.05,0,*6F
1484013609.52,58068,4.38,72624.5,-16.53,-48.77,-49.39,0,*69
1484013610.78,58069,4.38,72624.5,-16.53,-48.35,-48.55,0,*65
1484013612.01,58070,4.38,72626.8,-16.53,-48.63,-48.97,0,*60
1484013613.24,58071,4.38,72620.5,-16.53,-48.97,-49.25,0,*62
1484013614.5,58072,4.38,72620.8,-16.53,-48.83,-49.19,0,*6B
1484013615.75,58073,4.38,72622.8,-16.53,-48.83,-49.19,0,*6A
1484013617.02,58074,4.38,72622.8,-16.51,-48.55,-48.91,0,*65
1484013618.32,58075,4.38,72620.0,-16.51,-48.69,-48.91,0,*6B
1484013619.56,58076,4.38,72622.0,-16.55,-48.77,-49.05,0,*6F
1484013620.77,58077,4.38,72624.3,-16.55,-48.55,-48.97,0,*64
1484013622.0,58078,4.38,72622.3,-16.53,-48.49,-48.83,0,*65
1484013623.27,58079,4.38,72622.3,-16.51,-48.55,-48.91,0,*68
1484013624.53,58080,4.38,72622.0,-16.53,-48.55,-48.77,0,*64
1484013625.76,58081,4.38,72622.3,-16.53,-48.63,-48.97,0,*6E
1484013627.04,58082,4.38,72622.3,-16.51,-48.49,-48.77,0,*69
1484013628.28,58083,4.38,72622.5,-16.53,-48.55,-49.05,0,*63
1484013629.54,58084,4.38,72618.8,-16.53,-48.77,-49.25,0,*66
1484013630.79,58085,4.38,72622.8,-16.53,-48.83,-49.39,0,*61
1484013632.03,58086,4.38,72622.8,-16.53,-48.55,-48.97,0,*6C
1484013633.26,58087,4.38,72620.3,-16.53,-48.83,-49.05,0,*6C
1484013634.51,58088,4.38,72624.3,-16.53,-48.83,-49.19,0,*6E
1484013635.78,58089,4.38,72620.5,-16.53,-48.97,-49.39,0,*68
1484013637.07,58090,4.38,72620.8,-16.51,-48.91,-49.11,0,*6E
1484013638.3,58091,4.38,72622.3,-16.53,-48.63,-48.97,0,*6F
1484013639.56,58092,4.38,72622.5,-16.55,-48.77,-49.19,0,*68
1484013640.86,58093,4.38,72624.8,-16.51,-48.77,-49.19,0,*6D
1484013642.12,58094,4.38,72626.5,-16.53,-48.83,-49.39,0,*61
1484013643.37,58095,4.38,72622.0,-16.53,-48.83,-49.19,0,*62
1484013644.61,58096,4.38,72620.5,-16.53,-48.55,-49.05,0,*67
1484013645.85,58097,4.38,72630.0,-16.53,-48.55,-48.83,0,*69
1484013647.12,58098,4.38,72622.8,-16.51,-48.55,-48.91,0,*67
1484013648.38,58099,4.38,72620.0,-16.53,-48.77,-49.05,0,*68
1484013649.62,58100,4.38,72618.5,-16.53,-48.83,-49.05,0,*62
1484013650.9,58101,4.31,72620.5,-16.53,-48.77,-49.39,0,*67
1484013652.13,58102,4.38,72620.5,-16.53,-48.83,-49.25,0,*62
1484013653.37,58103,4.31,72620.8,-16.53,-48.83,-49.05,0,*61
1484013654.64,58104,4.38,72622.0,-16.51,-48.69,-48.97,0,*6A
1484013655.89,58105,4.31,72620.8,-16.53,-48.83,-49.19,0,*6A
1484013657.12,58106,4.38,72622.3,-16.55,-48.83,-49.19,0,*6F
1484013658.33,58107,4.38,72622.5,-16.55,-48.83,-49.25,0,*61
1484013659.56,58108,4.38,72622.5,-16.53,-48.97,-49.25,0,*6D
1484013660.85,58109,4.31,72622.0,-16.53,-48.77,-49.19,0,*6D
1484013662.08,58110,4.38,72626.3,-16.53,-48.97,-49.25,0,*64
1484013663.34,58111,4.38,72622.0,-16.53,-48.49,-48.77,0,*60
1484013664.57,58112,4.31,72618.0,-16.53,-48.63,-48.97,0,*65
1484013665.78,58113,4.38,72624.5,-16.55,-48.83,-49.25,0,*64
1484013666.98,58114,4.38,72626.5,-16.55,-48.83,-49.25,0,*63
1484013668.22,58115,4.38,72622.0,-16.55,-48.77,-49.05,0,*6B
1484013669.46,58116,4.31,72622.3,-16.55,-48.77,-49.05,0,*68
1484013670.7,58117,4.31,72620.3,-16.53,-48.55,-49.05,0,*6F
1484013671.97,58118,4.38,72620.8,-16.53,-48.77,-49.05,0,*60
1484013673.2,58119,4.38,72626.0,-16.53,-48.63,-49.05,0,*64
1484013674.47,58120,4.38,72622.8,-16.51,-48.27,-48.49,0,*65
1484013675.7,58121,4.38,72624.3,-16.53,-48.63,-48.97,0,*65
1484013676.95,58122,4.38,72620.8,-16.53,-48.77,-48.97,0,*63
1484013678.22,58123,4.38,72624.8,-16.53,-48.77,-49.05,0,*68
1484013679.48,58124,4.38,72622.3,-16.53,-48.83,-49.39,0,*6B
1484013680.74,58125,4.38,72624.0,-16.53,-49.05,-49.47,0,*6C
1484013682.0,58126,4.38,72626.0,-16.53,-48.49,-48.77,0,*64
1484013683.21,58127,4.31,72624.8,-16.55,-48.63,-48.97,0,*65
1484013684.41,58128,4.38,72622.3,-16.55,-48.63,-48.97,0,*6A
1484013685.62,58129,4.31,72620.3,-16.55,-48.63,-48.97,0,*6B
1484013686.83,58130,4.38,72624.0,-16.55,-48.63,-48.97,0,*63
1484013688.03,58131,4.31,72618.8,-16.55,-48.63,-48.97,0,*62
1484013689.24,58132,4.38,72622.0,-16.55,-48.83,-49.25,0,*67
1484013690.5,58133,4.31,72616.3,-16.57,-48.97,-49.39,0,*6C
1484013691.73,58134,4.38,72618.3,-16.55,-48.97,-49.19,0,*6B
1484013693.02,58135,4.38,72618.5,-16.53,-48.77,-49.19,0,*62
1484013694.25,58136,4.38,72628.8,-16.53,-48.83,-49.25,0,*65
1484013695.46,58137,4.38,72622.0,-16.55,-48.63,-48.97,0,*64
1484013696.74,58138,4.31,72616.5,-16.53,-48.77,-49.19,0,*6F
1484013697.98,58139,4.31,72616.0,-16.53,-48.63,-49.05,0,*66
1484013699.21,58140,4.38,72620.3,-16.53,-48.49,-48.83,0,*6F
1484013700.44,58141,4.38,72624.8,-16.53,-48.55,-48.97,0,*66
1484013701.67,58142,4.38,72622.5,-16.53,-48.55,-48.97,0,*65
1484013702.91,58143,4.38,72622.0,-16.53,-48.83,-49.05,0,*65
1484013704.17,58144,4.31,72622.5,-16.53,-48.97,-49.39,0,*68
1484013705.43,58145,4.38,72622.0,-16.53,-48.77,-49.05,0,*68
1484013706.71,58146,4.31,72622.0,-16.53,-48.77,-49.19,0,*66
1484013707.98,58147,4.38,72620.5,-16.53,-48.77,-49.05,0,*6A
1484013709.24,58148,4.38,72620.0,-16.53,-48.35,-48.83,0,*6C
1484013710.47,58149,4.31,72620.3,-16.53,-48.63,-49.05,0,*61
1484013711.7,58150,4.31,72620.8,-16.53,-48.83,-49.25,0,*65
1484013712.93,58151,4.38,72620.0,-16.53,-48.63,-48.97,0,*62
1484013714.16,58152,4.38,72618.8,-16.53,-48.83,-49.25,0,*67
1484013715.4,58153,4.38,72624.8,-16.53,-48.83,-49.05,0,*64
1484013716.65,58154,4.31,72622.3,-16.53,-48.97,-49.47,0,*60
1484013717.9,58155,4.38,72622.8,-16.53,-48.83,-49.19,0,*6F
1484013719.14,58156,4.38,72626.3,-16.53,-48.55,-48.83,0,*65
1484013720.38,58157,4.31,72620.5,-16.53,-48.63,-49.05,0,*6E
1484013721.61,58158,4.38,72622.5,-16.53,-48.55,-48.97,0,*6E
1484013722.87,58159,4.31,72618.5,-16.53,-48.97,-49.39,0,*64
1484013724.1,58160,4.31,72620.8,-16.53,-48.55,-48.97,0,*65
1484013725.36,58161,4.38,72620.8,-16.53,-48.83,-49.39,0,*6A
1484013726.61,58162,4.38,72622.5,-16.53,-48.83,-49.19,0,*6B
1484013727.82,58163,4.31,72620.0,-16.55,-48.83,-49.25,0,*63
1484013729.06,58164,4.31,72618.3,-16.55,-48.83,-49.39,0,*69
1484013730.26,58165,4.31,72620.0,-16.55,-48.97,-49.25,0,*60
1484013731.5,58166,4.31,72618.0,-16.57,-48.49,-48.83,0,*6F
1484013732.74,58167,4.31,72618.5,-16.55,-48.27,-48.55,0,*6F
1484013733.98,58168,4.31,72620.0,-16.53,-48.63,-48.83,0,*6D
1484013735.22,58169,4.31,72620.5,-16.55,-48.55,-48.77,0,*64
1484013736.43,58170,4.38,72620.3,-16.55,-48.83,-49.25,0,*61
1484013737.63,58171,4.38,72620.5,-16.55,-48.97,-49.25,0,*65
1484013738.85,58172,4.31,72616.5,-16.55,-48.63,-49.05,0,*6F
1484013740.09,58173,4.31,72622.0,-16.55,-48.55,-48.77,0,*6F
1484013741.33,58174,4.31,72620.0,-16.53,-48.55,-48.83,0,*65
1484013742.61,58175,4.31,72622.0,-16.53,-48.77,-49.19,0,*66
1484013743.87,58176,4.31,72618.3,-16.53,-48.49,-48.77,0,*61
1484013745.11,58177,4.31,72618.3,-16.51,-48.55,-48.97,0,*61
1484013746.37,58178,4.31,72620.0,-16.53,-48.63,-49.19,0,*6E
1484013747.65,58179,4.38,72618.8,-16.53,-48.77,-49.19,0,*6A
1484013748.89,58180,4.31,72618.5,-16.53,-48.49,-48.83,0,*63
1484013750.15,58181,4.31,72620.5,-16.53,-48.35,-48.55,0,*62
1484013751.43,58182,4.31,72616.5,-16.53,-48.77,-49.19,0,*6E
1484013752.7,58183,4.31,72618.3,-16.53,-48.97,-49.39,0,*63
1484013753.95,58184,4.31,72620.5,-16.53,-48.83,-49.19,0,*63
1484013755.25,58185,4.38,72622.8,-16.51,-48.69,-49.19,0,*64
1484013756.48,58186,4.31,72622.3,-16.53,-48.49,-48.83,0,*65
1484013757.71,58187,4.38,72618.8,-16.53,-48.83,-49.25,0,*6F
1484013758.97,58188,4.38,72620.3,-16.53,-48.63,-49.19,0,*61
1484013760.2,58189,4.31,72616.8,-16.53,-48.49,-48.97,0,*6F
1484013761.46,58190,4.31,72620.8,-16.53,-48.49,-48.77,0,*69
1484013762.69,58191,4.31,72616.0,-16.53,-48.83,-49.25,0,*68
1484013763.93,58192,4.31,72614.8,-16.53,-48.63,-49.05,0,*67
1484013765.16,58193,4.38,72620.8,-16.53,-48.63,-48.83,0,*69
1484013766.4,58194,4.31,72616.3,-16.53,-48.83,-49.05,0,*6F
1484013767.63,58195,4.31,72618.3,-16.53,-48.83,-49.25,0,*6C
1484013768.88,58196,4.31,72618.0,-16.53,-48.83,-49.19,0,*60
1484013770.12,58197,4.31,72618.3,-16.53,-48.55,-49.05,0,*67
1484013771.38,58198,4.31,72620.5,-16.53,-48.83,-49.39,0,*6C
1484013772.64,58199,4.31,72622.5,-16.53,-48.97,-49.39,0,*68
1484013773.94,58200,4.38,72620.0,-16.51,-48.91,-49.39,0,*6F
1484013775.19,58201,4.31,72616.5,-16.53,-48.83,-49.19,0,*6D
1484013776.45,58202,4.31,72618.8,-16.53,-48.83,-49.19,0,*6E
1484013777.68,58203,4.31,72616.5,-16.53,-48.83,-49.25,0,*60
1484013778.96,58204,4.31,72616.0,-16.53,-48.77,-49.19,0,*63
1484013780.22,58205,4.31,72618.0,-16.53,-48.83,-49.39,0,*6B
1484013781.45,58206,4.31,72618.8,-16.55,-48.97,-49.47,0,*62
1484013782.73,58207,4.31,72616.5,-16.53,-49.19,-49.61,0,*66
1484013784.0,58208,4.31,72616.8,-16.53,-49.05,-49.39,0,*69
1484013785.24,58209,4.31,72618.5,-16.55,-48.77,-49.05,0,*65
1484013786.47,58210,4.31,72618.8,-16.55,-48.83,-49.19,0,*6B
1484013787.73,58211,4.31,72618.8,-16.57,-48.83,-49.39,0,*6A
1484013788.97,58212,4.31,72618.8,-16.55,-48.83,-49.39,0,*6B
1484013790.18,58213,4.31,72620.8,-16.55,-48.63,-48.97,0,*61
1484013791.41,58214,4.31,72616.3,-16.55,-48.35,-48.83,0,*60
1484013792.65,58215,4.38,72616.5,-16.55,-48.35,-48.55,0,*6A
1484013793.91,58216,4.38,72622.5,-16.55,-48.77,-49.19,0,*66
1484013795.14,58217,4.31,72616.8,-16.55,-48.63,-49.19,0,*62
1484013796.4,58218,4.38,72624.0,-16.53,-48.77,-49.25,0,*61
1484013797.66,58219,4.31,72622.0,-16.53,-48.77,-48.83,0,*6D
1484013798.87,58220,4.38,72618.0,-16.55,-48.55,-48.97,0,*64
1484013800.08,58221,4.38,72620.8,-16.55,-48.63,-48.97,0,*60
1484013801.29,58222,4.31,72622.0,-16.55,-48.55,-48.97,0,*66
1484013802.52,58223,4.31,72620.0,-16.55,-48.83,-49.39,0,*69
1484013803.75,58224,4.31,72612.5,-16.55,-48.83,-49.19,0,*6C
1484013804.96,58225,4.31,72618.0,-16.55,-48.83,-49.25,0,*62
1484013806.2,58226,4.31,72616.8,-16.55,-48.83,-49.39,0,*6C
1484013807.46,58227,4.38,72616.8,-16.57,-48.77,-49.05,0,*6B
1484013808.72,58228,4.31,72616.8,-16.55,-48.77,-49.19,0,*6B
1484013809.97,58229,4.38,72616.3,-16.55,-48.77,-49.05,0,*67
1484013811.17,58230,4.31,72618.3,-16.55,-48.83,-49.25,0,*66
1484013812.38,58231,4.31,72612.3,-16.55,-48.49,-48.97,0,*69
1484013813.61,58232,4.31,72616.5,-16.55,-48.77,-48.97,0,*67
1484013814.87,58233,4.38,72618.5,-16.57,-48.35,-48.83,0,*67
1484013816.13,58234,4.31,72618.5,-16.55,-48.77,-49.19,0,*66
1484013817.37,58235,4.31,72616.8,-16.55,-48.97,-49.39,0,*6B
1484013818.58,58236,4.31,72620.0,-16.55,-48.97,-49.25,0,*65
1484013819.78,58237,4.31,72620.5,-16.55,-48.83,-49.25,0,*61
1484013821.04,58238,4.31,72612.5,-16.57,-49.05,-49.61,0,*63
1484013822.25,58239,4.31,72616.3,-16.55,-48.83,-49.25,0,*6F
1484013823.48,58240,4.31,72616.8,-16.55,-48.83,-49.47,0,*65
1484013824.75,58241,4.31,72618.0,-16.57,-48.77,-49.05,0,*6B
1484013825.95,58242,4.31,72616.3,-16.55,-48.83,-49.25,0,*63
1484013827.22,58243,4.31,72618.3,-16.57,-48.97,-49.39,0,*68
1484013828.48,58244,4.31,72616.8,-16.57,-48.97,-49.39,0,*6F
1484013829.72,58245,4.31,72614.3,-16.57,-48.63,-49.05,0,*6A
1484013830.98,58246,4.31,72614.5,-16.55,-48.77,-49.19,0,*63
1484013832.24,58247,4.31,72618.3,-16.55,-48.77,-49.19,0,*62
1484013833.53,58248,4.31,72614.8,-16.57,-48.77,-49.19,0,*6F
1484013834.77,58249,4.31,72614.0,-16.57,-48.83,-49.05,0,*68
1484013836.04,58250,4.31,72622.8,-16.57,-48.77,-49.05,0,*6B
1484013837.27,58251,4.31,72618.3,-16.55,-48.63,-49.19,0,*60
1484013838.48,58252,4.31,72616.5,-16.55,-48.63,-49.05,0,*6E
1484013839.75,58253,4.31,72618.3,-16.57,-48.77,-49.05,0,*68
1484013841.01,58254,4.31,72618.0,-16.57,-49.05,-49.61,0,*69
1484013842.27,58255,4.31,72612.3,-16.57,-48.97,-49.47,0,*66
1484013843.51,58256,4.31,72614.8,-16.59,-48.91,-49.33,0,*6E
1484013844.73,58257,4.31,72614.5,-16.59,-48.83,-49.33,0,*6C
1484013845.97,58258,4.31,72616.3,-16.59,-48.91,-49.25,0,*67
1484013847.21,58259,4.31,72616.0,-16.59,-48.83,-49.11,0,*62
1484013848.42,58260,4.31,72618.0,-16.59,-48.63,-49.05,0,*63
1484013849.66,58261,4.31,72616.3,-16.57,-48.55,-48.97,0,*63
1484013850.94,58262,4.31,72618.0,-16.57,-48.77,-49.19,0,*67
1484013852.2,58263,4.31,72618.0,-16.57,-48.55,-49.19,0,*66
1484013853.44,58264,4.31,72618.0,-16.57,-48.55,-48.97,0,*66
1484013854.67,58265,4.31,72614.3,-16.57,-48.55,-48.97,0,*67
1484013855.91,58266,4.31,72614.5,-16.57,-48.63,-48.83,0,*64
1484013857.12,58267,4.31,72616.5,-16.55,-48.63,-48.97,0,*62
1484013858.36,58268,4.31,72618.3,-16.57,-48.49,-48.55,0,*69
1484013859.6,58269,4.31,72614.8,-16.57,-48.49,-48.83,0,*63
1484013860.81,58270,4.31,72614.3,-16.55,-48.55,-48.97,0,*61
1484013862.04,58271,4.31,72616.8,-16.55,-48.83,-49.19,0,*6C
1484013863.31,58272,4.31,72618.0,-16.57,-48.77,-49.05,0,*6B
1484013864.51,58273,4.31,72618.3,-16.55,-48.55,-48.97,0,*62
1484013865.8,58274,4.31,72612.8,-16.57,-48.27,-48.77,0,*6C
1484013867.06,58275,4.31,72616.3,-16.57,-48.83,-49.19,0,*6A
1484013868.32,58276,4.31,72612.5,-16.57,-48.97,-49.39,0,*6E
1484013869.56,58277,4.31,72616.3,-16.55,-48.97,-49.39,0,*6D
1484013870.8,58278,4.38,72616.0,-16.57,-48.55,-48.83,0,*6E
1484013872.04,58279,4.31,72610.3,-16.57,-48.49,-48.83,0,*62
1484013873.25,58280,4.31,72612.5,-16.55,-48.63,-49.05,0,*61
1484013874.49,58281,4.31,72616.8,-16.57,-48.55,-48.83,0,*68
1484013875.73,58282,4.31,72614.8,-16.57,-48.63,-48.83,0,*6E
1484013876.99,58283,4.31,72616.8,-16.57,-48.27,-48.49,0,*69
1484013878.23,58284,4.31,72614.8,-16.55,-48.07,-48.35,0,*65
1484013879.47,58285,4.31,72614.5,-16.55,-48.49,-48.77,0,*68
1484013880.69,58286,4.31,72616.5,-16.55,-48.63,-49.05,0,*67
1484013881.9,58287,4.31,72614.0,-16.55,-48.49,-48.83,0,*61
1484013883.1,58288,4.31,72614.5,-16.55,-48.49,-48.97,0,*6B
1484013884.34,58289,4.31,72612.3,-16.55,-48.77,-48.97,0,*67
1484013885.62,58290,4.31,72612.5,-16.57,-48.35,-48.77,0,*65
1484013886.84,58291,4.31,72614.0,-16.55,-48.49,-48.83,0,*66
1484013888.07,58292,4.38,72618.3,-16.55,-48.49,-48.77,0,*6E
1484013889.31,58293,4.31,72614.0,-16.55,-48.77,-49.05,0,*66
1484013890.52,58294,4.31,72612.0,-16.55,-48.63,-48.97,0,*6E
1484013891.78,58295,4.31,72612.8,-16.55,-48.77,-49.19,0,*6D
1484013893.0,58296,4.31,72612.8,-16.55,-48.55,-48.83,0,*6C
1484013894.25,58297,4.31,72614.8,-16.57,-48.83,-49.19,0,*66
1484013895.49,58298,4.31,72618.5,-16.55,-48.77,-49.05,0,*6D
1484013896.73,58299,4.31,72612.3,-16.53,-48.49,-48.83,0,*68
1484013897.97,58300,4.31,72614.0,-16.55,-48.27,-48.55,0,*6C
1484013899.2,58301,4.31,72614.8,-16.55,-48.27,-48.49,0,*60
1484013900.41,58302,4.31,72616.8,-16.55,-48.63,-48.97,0,*60
1484013901.65,58303,4.31,72616.3,-16.57,-48.49,-48.83,0,*6E
1484013902.86,58304,4.31,72616.0,-16.55,-48.63,-49.05,0,*6C
1484013904.12,58305,4.31,72612.8,-16.55,-48.35,-48.77,0,*6A
1484013905.33,58306,4.31,72616.0,-16.55,-48.63,-48.97,0,*64
1484013906.53,58307,4.31,72612.8,-16.55,-48.83,-49.25,0,*63
1484013907.79,58308,4.31,72614.8,-16.55,-48.77,-49.19,0,*68
1484013909.03,58309,4.31,72614.3,-16.55,-48.83,-49.39,0,*60
1484013910.24,58310,4.31,72618.3,-16.55,-48.49,-48.83,0,*6E
1484013911.5,58311,4.31,72618.0,-16.55,-48.77,-49.19,0,*60
1484013912.8,58312,4.31,72614.8,-16.57,-48.77,-49.39,0,*63
1484013914.0,58313,4.31,72618.3,-16.55,-48.83,-49.25,0,*66
1484013915.23,58314,4.31,72614.8,-16.55,-48.83,-49.19,0,*6E
1484013916.44,58315,4.31,72614.3,-16.55,-48.83,-49.25,0,*60
1484013917.65,58316,4.31,72616.3,-16.55,-48.63,-48.97,0,*65
1484013918.86,58317,4.31,72616.3,-16.55,-48.63,-48.83,0,*61
1484013920.1,58318,4.31,72616.3,-16.55,-48.27,-48.55,0,*65
1484013921.34,58319,4.31,72612.3,-16.57,-48.63,-48.83,0,*6D
1484013922.58,58320,4.31,72618.3,-16.57,-48.49,-48.83,0,*6F
1484013923.81,58321,4.31,72608.8,-16.55,-48.63,-49.19,0,*66
1484013925.05,58322,4.31,72614.3,-16.57,-48.63,-49.05,0,*6A
1484013926.29,58323,4.31,72614.8,-16.55,-48.77,-49.05,0,*6C
1484013927.55,58324,4.31,72616.3,-16.55,-48.77,-49.19,0,*66
1484013928.82,58325,4.31,72612.8,-16.57,-48.55,-49.19,0,*65
1484013930.03,58326,4.31,72612.3,-16.55,-48.55,-48.83,0,*66
1484013931.23,58327,4.31,72614.8,-16.55,-48.49,-48.97,0,*6F
1484013932.47,58328,4.31,72610.8,-16.57,-48.55,-48.83,0,*6A
1484013933.72,58329,4.31,72614.0,-16.55,-48.77,-49.05,0,*66
1484013934.95,58330,4.31,72614.0,-16.57,-48.83,-49.05,0,*67
1484013936.21,58331,4.31,72612.8,-16.55,-48.77,-49.19,0,*62
1484013937.42,58332,4.31,72612.5,-16.55,-48.83,-49.05,0,*67
1484013938.63,58333,4.31,72618.5,-16.55,-48.83,-49.25,0,*64
1484013939.87,58334,4.31,72614.0,-16.55,-48.77,-49.25,0,*68
1484013941.13,58335,4.31,72618.3,-16.55,-48.77,-49.19,0,*66
1484013942.39,58336,4.31,72610.8,-16.57,-48.83,-49.19,0,*6C
1484013943.64,58337,4.31,72614.5,-16.57,-48.83,-49.47,0,*66
1484013944.93,58338,4.31,72614.0,-16.57,-48.77,-49.19,0,*69
1484013946.22,58339,4.31,72612.3,-16.57,-48.77,-49.19,0,*68
1484013947.46,58340,4.31,72616.0,-16.57,-48.55,-48.83,0,*64
1484013948.72,58341,4.31,72616.0,-16.57,-48.63,-49.19,0,*62
1484013949.95,58342,4.31,72614.0,-16.57,-48.97,-49.25,0,*65
1484013951.22,58343,4.31,72618.5,-16.57,-48.77,-49.05,0,*68
1484013952.43,58344,4.31,72612.0,-16.55,-48.55,-48.83,0,*62
1484013953.72,58345,4.31,72618.3,-16.57,-48.35,-48.77,0,*6C
1484013954.92,58346,4.31,72614.5,-16.55,-48.55,-48.97,0,*65
1484013956.19,58347,4.31,72612.8,-16.57,-48.35,-48.55,0,*6E
1484013957.46,58348,4.31,72612.8,-16.55,-48.13,-48.35,0,*61
1484013958.69,58349,4.31,72618.8,-16.57,-48.49,-48.97,0,*65
1484013959.9,58350,4.31,72618.5,-16.55,-48.55,-48.83,0,*67
1484013961.14,58351,4.31,72616.0,-16.57,-48.55,-48.83,0,*64
1484013962.38,58352,4.31,72614.5,-16.55,-48.63,-49.19,0,*62
1484013963.66,58353,4.31,72618.0,-16.57,-48.77,-49.19,0,*64
1484013964.9,58354,4.31,72616.3,-16.57,-48.97,-49.25,0,*62
1484013966.16,58355,4.31,72612.3,-16.55,-49.19,-49.47,0,*62
1484013967.39,58356,4.31,72614.0,-16.55,-49.25,-49.47,0,*6E
1484013968.62,58357,4.31,72612.8,-16.57,-48.97,-49.25,0,*61
1484013969.89,58358,4.31,72612.8,-16.55,-48.77,-49.39,0,*6F
1484013971.16,58359,4.31,72612.0,-16.57,-48.13,-48.49,0,*68
1484013972.42,58360,4.31,72616.3,-16.59,-48.91,-49.47,0,*69
1484013973.65,58361,4.31,72616.3,-16.57,-48.83,-49.25,0,*61
1484013974.92,58362,4.31,72614.0,-16.57,-48.77,-49.05,0,*6B
1484013976.16,58363,4.31,72614.3,-16.55,-48.77,-49.05,0,*68
1484013977.43,58364,4.31,72612.5,-16.57,-48.77,-49.05,0,*6D
1484013978.71,58365,4.31,72610.8,-16.57,-48.77,-49.19,0,*61
1484013979.97,58366,4.31,72614.0,-16.57,-48.77,-48.97,0,*65
1484013981.24,58367,4.31,72616.0,-16.57,-48.77,-49.05,0,*6E
1484013982.53,58368,4.31,72614.3,-16.57,-48.77,-49.19,0,*6C
1484013983.77,58369,4.31,72612.8,-16.57,-48.63,-49.05,0,*65
1484013984.99,58370,4.31,72612.0,-16.59,-48.41,-48.63,0,*62
1484013986.22,58371,4.31,72610.8,-16.57,-48.55,-48.97,0,*63
1484013987.49,58372,4.31,72610.8,-16.57,-48.77,-49.05,0,*6A
1484013988.71,58373,4.31,72614.8,-16.59,-48.41,-48.63,0,*61
1484013989.94,58374,4.31,72610.0,-16.59,-48.35,-48.83,0,*6B
1484013991.18,58375,4.31,72612.8,-16.57,-48.55,-48.97,0,*67
1484013992.42,58376,4.31,72612.8,-16.57,-48.49,-48.83,0,*6C
1484013993.62,58377,4.31,72612.3,-16.55,-48.63,-48.97,0,*62
1484013994.83,58378,4.31,72612.5,-16.55,-48.63,-48.97,0,*6D
1484013996.06,58379,4.31,72610.5,-16.59,-48.63,-48.91,0,*66
1484013997.33,58380,4.31,72614.0,-16.57,-48.35,-48.55,0,*65
1484013998.57,58381,4.31,72608.3,-16.57,-48.55,-48.83,0,*69
1484013999.8,58382,4.31,72604.5,-16.57,-48.55,-48.97,0,*6F
1484014001.09,58383,4.31,72610.5,-16.57,-48.77,-49.19,0,*69
1484014002.33,58384,4.31,72612.3,-16.57,-48.55,-48.83,0,*6C
1484014003.54,58385,4.31,72618.0,-16.55,-48.55,-48.97,0,*6A
1484014004.78,58386,4.31,72612.8,-16.57,-48.63,-48.83,0,*6B
1484014006.07,58387,4.31,72616.3,-16.57,-48.13,-48.35,0,*60
1484014007.36,58388,4.31,72612.5,-16.57,-48.27,-48.35,0,*68
1484014008.62,58389,4.31,72616.3,-16.57,-48.27,-48.49,0,*62
1484014009.86,58390,4.31,72612.8,-16.57,-48.49,-48.55,0,*6F
1484014011.1,58391,4.31,72612.5,-16.57,-48.55,-49.05,0,*67
1484014012.37,58392,4.31,72612.8,-16.57,-48.77,-49.05,0,*64
1484014013.6,58393,4.31,72612.8,-16.55,-48.77,-48.97,0,*6D
1484014014.82,58394,4.31,72616.3,-16.55,-48.55,-48.83,0,*6F
1484014016.02,58395,4.31,72610.8,-16.55,-48.63,-48.97,0,*6E
1484014017.26,58396,4.31,72614.0,-16.57,-48.49,-48.83,0,*62
1484014018.52,58397,4.31,72614.5,-16.55,-48.35,-48.77,0,*61
1484014019.79,58398,4.31,72612.0,-16.57,-48.49,-48.77,0,*67
1484014020.99,58399,4.31,72612.5,-16.55,-48.55,-48.97,0,*67
1484014022.21,58400,4.31,72608.8,-16.55,-48.63,-49.05,0,*6F
1484014023.47,58401,4.31,72612.8,-16.55,-48.27,-48.35,0,*6C
1484014024.68,58402,4.31,72610.8,-16.55,-48.55,-48.83,0,*67
1484014025.92,58403,4.31,72612.8,-16.55,-48.77,-49.05,0,*69
1484014027.13,58404,4.31,72608.0,-16.55,-48.83,-49.25,0,*67
1484014028.37,58405,4.31,72614.5,-16.55,-48.77,-49.05,0,*6F
1484014029.6,58406,4.31,72618.8,-16.55,-48.97,-49.19,0,*6F
1484014030.84,58407,4.31,72616.8,-16.55,-49.05,-49.39,0,*66
1484014032.07,58408,4.31,72614.8,-16.55,-48.97,-49.61,0,*6E
1484014033.33,58409,4.31,72614.3,-16.57,-48.77,-49.25,0,*63
1484014034.6,58410,4.31,72618.3,-16.57,-48.49,-48.77,0,*60
1484014035.84,58411,4.31,72614.3,-16.55,-48.13,-48.49,0,*61
1484014037.04,58412,4.31,72608.8,-16.55,-48.63,-48.97,0,*66
1484014038.26,58413,4.31,72614.3,-16.55,-48.49,-48.83,0,*6A
1484014039.52,58414,4.31,72612.0,-16.57,-48.63,-49.19,0,*65
1484014040.72,58415,4.31,72612.3,-16.55,-48.55,-48.97,0,*64
1484014041.96,58416,4.31,72612.3,-16.57,-48.83,-49.05,0,*64
1484014043.17,58417,4.31,72614.3,-16.55,-48.63,-49.05,0,*69
1484014044.41,58418,4.31,72614.8,-16.57,-48.55,-49.05,0,*61
1484014045.67,58419,4.31,72612.3,-16.57,-48.83,-49.19,0,*66
1484014046.9,58420,4.31,72614.8,-16.55,-48.83,-49.19,0,*6E
1484014048.16,58421,4.31,72616.8,-16.55,-48.77,-49.19,0,*64
1484014049.4,58422,4.31,72612.8,-16.57,-48.55,-48.97,0,*62
1484014050.61,58423,4.31,72614.0,-16.55,-48.63,-49.05,0,*6E
1484014051.82,58424,4.31,72614.3,-16.55,-48.83,-49.25,0,*65
1484014053.08,58425,4.31,72612.0,-16.55,-48.77,-49.19,0,*60
1484014054.34,58426,4.31,72618.0,-16.57,-48.83,-49.19,0,*6A
1484014055.57,58427,4.31,72616.3,-16.57,-48.55,-48.97,0,*67
1484014056.83,58428,4.31,72616.5,-16.57,-48.83,-49.19,0,*64
1484014058.09,58429,4.31,72612.3,-16.57,-48.63,-49.19,0,*6B
1484014059.34,58430,4.31,72614.8,-16.57,-48.83,-49.19,0,*6D
1484014060.61,58431,4.31,72614.8,-16.57,-48.83,-49.39,0,*6E
1484014061.84,58432,4.31,72614.3,-16.57,-48.97,-49.25,0,*65
1484014063.11,58433,4.31,72612.5,-16.57,-48.77,-49.05,0,*68
1484014064.37,58434,4.31,72614.3,-16.61,-48.63,-48.91,0,*63
1484014065.63,58435,4.31,72616.3,-16.57,-48.83,-49.19,0,*68
1484014066.89,58436,4.31,72612.8,-16.57,-48.77,-49.05,0,*6D
1484014068.18,58437,4.31,72612.8,-16.57,-48.77,-49.19,0,*61
1484014069.42,58438,4.31,72618.5,-16.57,-48.55,-48.97,0,*69
1484014070.66,58439,4.31,72616.5,-16.59,-48.69,-49.05,0,*63
1484014071.88,58440,4.31,72616.5,-16.59,-48.55,-49.05,0,*62
1484014073.1,58441,4.31,72620.5,-16.59,-48.41,-48.63,0,*67
1484014074.34,58442,4.31,72612.8,-16.59,-48.63,-48.91,0,*69
1484014075.55,58443,4.31,72612.8,-16.59,-48.63,-48.83,0,*6B
1484014076.77,58444,4.31,72612.5,-16.59,-48.63,-49.05,0,*63
1484014077.98,58445,4.31,72618.3,-16.59,-48.63,-48.83,0,*6D
1484014079.2,58446,4.31,72614.3,-16.59,-48.55,-48.83,0,*6B
1484014080.44,58447,4.31,72612.8,-16.59,-48.63,-48.91,0,*6C
1484014081.66,58448,4.31,72616.5,-16.59,-48.21,-48.41,0,*68
1484014082.92,58449,4.31,72614.8,-16.57,-48.69,-48.97,0,*60
1484014084.21,58450,4.31,72612.0,-16.57,-48.77,-49.19,0,*60
1484014085.5,58451,4.31,72612.8,-16.57,-48.77,-49.19,0,*61
1484014086.76,58452,4.31,72612.5,-16.57,-48.77,-49.05,0,*6F
1484014088.03,58453,4.31,72612.3,-16.57,-48.83,-49.39,0,*6A
1484014089.26,58454,4.31,72612.0,-16.57,-48.97,-49.25,0,*65
1484014090.5,58455,4.31,72614.0,-16.57,-48.83,-49.05,0,*63
1484014091.73,58456,4.31,72614.8,-16.57,-48.97,-49.25,0,*67
1484014092.98,58457,4.31,72614.3,-16.59,-48.91,-49.33,0,*69
1484014094.22,58458,4.31,72616.3,-16.59,-48.91,-49.33,0,*66
1484014095.46,58459,4.31,72614.5,-16.59,-48.63,-48.91,0,*63
1484014096.72,58460,4.31,72614.0,-16.61,-48.63,-48.91,0,*62